Theta_e
319 329 329 328 335 338 341 346 346 347 345 348 345 337 337 339 341 365 351 342 339 341 341 340 337 342 345 345 338 337 341 334 332 338 337 337 339 342 344 345 345 344 344 344 341 338 336 336 335
327 331 326 331 336 339 340 343 346 347 343 345 348 343 342 339 350 355 352 345 340 340 341 347 336 340 342 341 338 339 341 333 331 336 337 338 339 342 344 344 343 341 339 338 336 335 334 333 330
329 328 329 335 336 338 339 338 341 347 345 345 347 349 348 348 348 352 353 345 342 340 338 347 334 338 340 339 338 341 336 332 331 334 335 337 339 341 341 340 338 337 335 333 332 331 329 329 330
328 326 329 335 337 336 336 338 340 342 344 346 347 350 349 356 353 353 350 347 345 340 337 342 329 334 337 339 340 335 331 331 332 332 333 335 334 333 333 334 334 333 331 329 328 330 331 332 333
326 329 334 337 338 337 335 335 333 339 345 347 348 352 355 356 356 354 350 348 347 341 342 344 327 329 334 334 332 331 330 330 330 331 331 332 334 335 333 332 331 331 331 334 335 337 341 345 345
327 330 335 339 339 338 336 334 333 336 343 346 349 350 358 357 357 354 350 348 346 344 350 344 327 328 331 332 332 331 331 331 332 333 335 336 335 333 333 333 333 334 340 344 345 346 348 348 348
327 331 334 337 338 338 338 336 334 335 339 344 347 350 359 355 356 354 350 349 348 348 350 343 341 334 328 329 330 330 332 334 335 337 336 334 334 335 335 335 334 340 345 346 345 344 343 343 341
325 327 330 332 336 338 338 336 335 335 337 344 347 345 346 355 355 353 350 349 349 349 350 345 343 340 339 337 327 329 333 335 337 336 334 334 335 335 334 332 338 343 345 343 339 334 335 337 338
324 324 325 328 331 335 336 337 336 335 336 341 338 338 347 355 353 351 350 349 350 349 352 348 345 342 340 339 337 331 331 333 335 336 335 336 343 339 337 349 348 346 345 339 337 333 331 329 332
325 324 323 325 327 330 333 336 335 334 335 337 335 337 345 354 351 350 351 352 350 349 350 350 348 345 343 342 343 339 340 340 341 344 344 343 345 350 352 351 346 337 335 332 330 329 327 331 332
325 324 324 324 324 326 329 331 334 334 333 332 333 339 347 350 351 349 350 351 350 348 348 348 348 349 345 343 344 340 341 342 346 347 346 345 348 352 351 347 339 338 332 334 329 329 327 327 326
324 324 324 324 325 325 326 328 331 333 333 332 332 334 345 350 351 351 350 350 350 348 348 347 348 351 347 345 345 344 346 348 348 346 346 349 353 353 346 333 332 332 328 328 327 325 326 326 325
323 323 324 324 324 324 325 325 327 330 330 332 331 332 344 348 351 350 350 351 351 350 348 348 349 351 349 347 347 347 347 346 344 346 348 351 351 347 333 334 330 327 327 326 325 325 325 325 323
322 323 323 323 323 323 324 324 325 327 329 331 330 331 335 344 350 352 352 352 351 350 349 347 349 352 352 350 349 346 344 343 345 351 352 351 343 337 335 331 327 327 326 325 325 325 325 324 323
322 322 322 322 322 322 322 322 322 324 327 330 333 331 332 339 344 350 352 351 350 350 349 347 348 353 353 351 348 346 345 345 350 348 349 342 337 339 331 328 327 326 326 325 324 325 323 323 323
321 322 322 322 322 322 321 321 322 323 324 327 328 332 333 338 341 346 351 352 349 348 348 348 347 352 353 348 348 347 347 349 348 343 339 336 337 335 329 327 326 326 326 325 324 323 324 324 325
322 321 321 321 322 322 322 322 322 323 323 324 327 329 333 334 341 344 349 352 350 347 347 349 347 349 349 348 348 347 352 348 340 334 333 334 332 329 327 326 327 327 325 325 324 324 324 324 325
319 321 321 321 322 322 322 322 322 323 323 323 324 327 329 331 340 344 346 350 351 347 347 347 346 347 347 348 347 350 351 342 336 332 330 332 327 327 327 327 328 327 325 325 327 329 325 324 326
321 321 321 322 322 322 322 323 322 323 323 324 324 325 327 330 332 348 348 350 350 348 347 347 346 348 348 349 349 350 347 340 335 330 331 329 327 328 328 327 330 328 327 330 329 327 326 324 327
321 321 321 321 321 321 322 322 322 323 323 324 324 325 325 328 332 340 349 350 351 349 348 348 347 350 349 349 349 349 345 339 333 329 331 328 328 329 328 328 329 328 329 331 330 332 326 324 325
319 319 320 320 320 321 321 321 322 322 323 323 324 324 325 326 329 335 351 350 351 350 350 349 348 351 350 349 350 349 344 339 334 332 330 328 328 329 327 330 329 331 329 330 331 329 331 327 326
320 319 319 319 320 321 322 321 322 322 323 323 324 324 324 325 327 339 345 352 351 349 348 349 350 351 350 351 350 348 345 341 336 332 329 328 328 328 329 330 331 332 328 330 330 329 326 327 324
319 319 319 320 321 321 320 321 321 323 323 324 324 324 324 325 325 329 345 353 353 346 350 350 348 351 350 351 351 351 347 343 338 333 329 328 328 328 329 330 331 333 330 331 331 331 329 325 324
319 319 319 320 320 321 321 321 321 322 323 324 324 324 325 325 325 327 328 349 355 353 352 353 352 349 348 350 352 352 349 344 340 335 331 328 328 329 329 330 332 333 333 332 331 331 330 329 328
320 320 322 322 321 321 320 321 322 323 323 326 326 328 329 329 328 327 327 327 346 355 353 354 353 350 349 349 350 350 349 347 344 337 332 329 328 328 329 329 332 332 332 332 331 332 331 331 327
321 321 322 323 323 322 322 321 321 323 326 327 325 326 329 330 330 330 330 331 331 336 350 354 355 352 348 340 348 346 339 347 348 337 334 331 329 329 329 330 331 332 332 332 332 331 329 330 329
323 323 323 326 324 323 322 322 322 327 328 327 326 327 329 330 330 331 331 331 331 331 339 350 353 355 345 346 347 340 332 342 349 339 336 333 329 329 330 330 332 332 331 331 332 330 329 329 329
322 322 325 324 328 329 324 323 322 327 327 327 328 329 328 329 329 330 332 333 333 332 333 345 348 356 355 351 351 350 346 349 351 342 337 333 330 329 332 331 332 332 331 331 331 331 330 330 328
318 321 322 323 326 331 328 322 330 328 330 329 328 327 327 328 329 330 331 333 333 333 330 333 342 345 350 354 352 351 350 350 351 343 336 335 331 331 333 332 332 331 330 330 330 329 328 329 329
315 317 322 326 329 326 326 329 328 328 329 327 325 324 325 326 328 330 330 331 332 334 334 330 330 342 343 346 352 350 349 351 343 339 338 335 333 333 333 332 332 331 331 330 331 330 327 328 328
Wind_Speed
8 7 10 12 8 8 16 11 8 7 1 3 3 3 4 9 6 6 14 16 22 24 27 27 23 21 22 23 21 21 19 18 18 17 16 14 12 11 10 9 7 6 6 6 6 5 5 6 7
8 8 12 8 10 14 12 10 9 12 4 1 7 5 3 7 16 11 15 15 24 23 24 25 25 23 22 22 21 20 19 18 18 17 15 14 12 10 9 7 6 4 3 3 3 4 4 4 5
9 10 9 13 14 16 4 3 8 10 8 3 4 2 0 4 8 12 17 24 26 23 24 23 27 24 22 21 21 21 19 18 18 17 15 13 11 9 7 6 4 3 1 1 2 4 4 5 5
9 9 7 12 20 17 13 9 3 2 6 8 9 7 5 9 5 8 20 25 26 25 24 23 28 25 22 21 21 20 19 18 17 16 14 12 10 8 6 5 4 3 1 1 2 3 4 5 6
14 8 13 18 20 22 3 10 1 8 7 7 7 7 5 8 5 12 22 26 26 26 24 23 27 26 24 22 21 20 19 18 17 16 14 12 10 8 6 4 3 2 2 1 2 3 5 6 6
9 11 15 17 22 20 6 6 4 9 8 8 7 9 8 12 9 15 22 26 25 26 22 25 27 25 25 23 21 20 19 18 17 15 13 11 9 7 6 4 3 2 1 1 2 4 4 5 4
17 14 19 23 22 16 10 11 4 9 10 6 5 10 10 11 13 18 22 24 25 25 22 24 24 25 24 22 21 19 18 17 16 14 12 10 8 6 5 4 3 2 1 1 2 3 3 3 3
14 15 26 21 21 22 12 8 11 8 11 12 6 6 8 17 16 19 22 23 23 24 24 24 25 24 22 20 21 19 18 15 14 13 11 9 7 5 4 3 3 2 2 2 2 2 3 4 3
19 15 19 24 25 22 13 9 12 4 13 8 6 6 9 18 18 21 24 25 25 24 26 25 24 23 23 20 20 20 18 16 14 12 11 8 7 5 7 6 5 3 3 4 3 4 5 6 6
15 16 24 22 23 20 20 11 15 9 14 7 11 6 1 15 19 21 23 24 26 26 26 27 25 23 23 21 19 18 16 14 13 11 10 10 9 6 10 3 4 3 3 4 6 6 6 7 11
20 21 20 23 23 22 15 16 10 10 14 14 8 9 8 15 18 20 22 24 25 26 25 26 24 23 23 21 18 19 17 16 14 12 11 10 8 7 8 4 5 3 4 5 6 6 7 7 7
23 21 21 26 19 15 15 19 22 13 16 5 7 4 8 13 15 18 21 23 24 25 24 25 24 23 21 20 18 18 17 17 14 13 12 9 9 7 3 2 1 2 3 4 4 6 6 5 6
20 23 22 18 21 20 17 19 23 15 17 20 4 5 12 10 15 20 20 19 21 23 23 24 25 24 21 18 18 17 16 14 13 13 12 12 9 5 5 3 1 1 2 4 5 5 5 5 5
19 21 20 22 16 18 21 21 20 21 20 18 16 17 11 14 15 18 22 24 24 23 25 26 26 25 22 20 18 16 15 14 14 12 12 8 7 8 6 3 2 1 2 4 5 5 5 6 5
16 22 18 19 20 21 18 23 26 24 22 20 25 15 17 13 13 17 22 19 23 25 26 27 27 26 23 19 17 16 15 16 13 12 12 9 8 8 6 5 3 1 2 4 4 5 5 5 5
16 20 20 21 22 20 19 24 24 25 26 26 19 21 17 15 13 17 20 21 20 23 27 28 28 26 24 21 19 16 15 14 13 12 12 11 10 9 7 5 4 2 2 3 4 5 5 6 4
18 17 24 24 21 23 23 24 21 22 23 27 24 20 25 19 14 15 20 24 22 24 27 29 27 29 26 22 20 17 16 14 14 13 12 12 11 10 8 7 4 3 2 3 3 4 5 4 2
20 21 20 21 16 17 18 23 21 20 20 23 23 17 17 23 20 23 19 22 23 26 27 28 28 30 29 26 22 19 15 16 14 14 13 14 12 12 10 8 6 4 2 2 3 5 5 5 2
21 21 22 14 17 17 16 18 21 19 20 16 16 18 22 19 25 29 26 20 24 21 27 28 29 35 33 29 26 23 21 20 17 15 15 15 14 12 11 9 7 5 3 2 1 1 6 7 2
18 20 23 19 19 14 17 21 20 20 17 18 18 19 18 21 21 16 22 29 34 29 25 25 26 30 33 30 26 23 21 20 19 17 16 15 15 13 12 11 8 7 5 3 3 1 2 6 9
19 19 20 21 21 22 20 23 23 23 23 22 21 21 20 22 21 18 24 27 34 36 24 26 28 29 29 29 26 21 20 19 19 18 18 18 17 15 14 11 9 8 6 4 2 2 3 4 6
20 18 18 19 17 17 19 18 22 23 26 25 23 22 20 21 22 22 18 27 30 30 40 28 30 31 30 27 29 29 27 23 25 22 20 21 18 17 14 13 10 9 5 6 3 2 2 3 5
18 19 19 17 18 20 22 16 20 16 19 16 17 19 22 20 22 22 26 29 31 29 29 46 54 36 28 30 28 31 27 24 23 24 24 22 21 18 17 15 12 9 7 6 5 3 3 5 5
17 19 22 20 18 17 24 22 21 18 21 22 13 15 13 13 17 20 21 37 36 34 36 40 37 43 32 29 25 28 24 21 22 24 27 25 23 21 21 18 15 12 9 8 6 4 3 5 6
16 16 13 16 15 19 22 22 21 15 20 5 6 7 8 9 9 11 13 12 33 39 36 36 32 28 43 32 23 28 22 22 25 27 26 27 27 25 24 21 19 15 12 10 8 6 5 4 5
24 22 16 23 18 20 21 23 20 17 8 2 4 1 4 7 10 8 10 13 17 25 33 33 32 34 38 48 48 34 20 33 39 42 31 30 29 30 28 26 21 16 13 11 10 8 6 5 4
17 21 21 25 26 21 22 21 18 12 10 8 4 2 5 7 6 6 6 8 13 17 26 29 32 37 33 35 35 38 49 51 40 37 31 27 24 26 29 26 21 19 17 15 12 9 8 7 6
19 18 15 14 23 26 21 23 18 21 17 11 11 7 4 4 6 5 5 3 7 13 15 26 31 36 36 38 37 39 40 35 32 33 32 30 27 25 30 26 23 21 19 16 14 11 10 8 6
17 18 20 19 17 15 19 18 11 4 7 12 8 5 4 4 7 8 8 8 8 6 8 14 22 25 29 41 39 36 33 34 31 33 37 28 28 21 27 28 24 24 22 20 17 13 12 11 8
11 16 21 10 18 20 19 12 12 7 10 3 7 6 6 6 8 9 10 12 12 12 12 10 17 21 25 27 27 31 33 31 34 30 23 18 19 13 20 24 22 22 21 21 18 17 15 14 11
Wind_Direction
246 261 264 266 246 231 269 174 94 95 318 350 49 242 154 107 164 75 117 146 147 147 154 162 167 165 168 172 174 170 164 160 161 160 153 148 142 135 128 122 114 100 88 80 70 59 44 29 20
236 255 254 271 255 258 240 118 160 144 135 305 289 124 291 136 79 116 130 150 150 148 155 158 169 166 171 175 175 173 169 165 164 163 156 153 148 142 138 134 126 110 83 59 42 29 29 17 5
230 247 272 245 245 260 358 69 36 103 117 211 231 329 136 61 109 136 124 152 150 153 156 164 167 170 169 176 178 174 172 168 165 163 160 156 154 153 153 150 142 133 101 10 3 351 355 356 354
212 219 245 256 259 249 296 90 18 175 155 186 218 182 173 59 120 138 149 152 151 155 157 171 168 171 173 172 174 174 171 169 166 163 162 160 160 161 163 161 154 147 140 350 351 338 337 342 341
234 261 252 252 243 263 142 289 67 235 193 185 193 156 144 149 137 137 158 158 157 155 156 162 171 170 173 175 177 176 173 168 164 161 162 161 160 159 164 164 155 140 119 40 339 334 333 334 331
227 240 249 247 248 243 220 263 281 261 197 171 210 245 101 123 157 160 163 161 162 155 153 162 170 172 172 176 179 179 176 170 165 165 164 162 163 166 171 173 167 153 134 48 338 331 331 332 335
240 236 243 258 262 259 216 204 265 238 258 195 163 237 106 153 149 159 165 161 161 157 156 162 164 169 173 176 180 181 179 174 170 170 169 169 172 178 184 187 180 174 180 310 337 341 346 357 1
238 250 260 249 260 261 233 191 243 256 264 78 159 196 240 143 153 159 165 165 161 163 160 167 167 167 168 173 180 181 182 181 178 177 177 178 183 189 186 183 197 221 277 309 339 351 346 335 340
227 252 243 246 252 257 266 248 241 247 268 163 194 255 46 120 157 165 168 170 169 172 164 171 171 171 171 172 177 180 183 185 186 184 186 181 179 196 206 201 236 262 293 312 330 336 333 318 265
230 230 242 248 258 263 261 248 252 183 225 195 204 173 192 148 173 177 177 177 176 179 172 173 175 173 175 171 176 176 181 183 187 190 195 188 191 154 157 174 242 286 317 326 343 346 330 305 293
223 244 245 245 260 272 298 298 255 253 227 215 188 131 172 174 189 188 191 185 181 181 175 175 176 173 179 174 175 180 184 187 194 194 189 209 191 172 208 204 209 250 320 294 322 300 325 334 321
232 245 249 270 277 262 256 273 273 253 258 286 120 156 171 190 199 205 199 191 181 179 180 173 175 174 183 176 180 181 185 189 191 194 189 192 200 187 204 222 241 260 327 332 332 341 342 333 328
236 250 254 253 263 276 264 253 260 246 255 274 201 209 170 197 205 216 207 194 185 182 180 176 174 174 180 183 184 187 190 185 188 183 189 194 213 167 192 165 274 317 352 350 341 343 341 341 340
248 248 257 263 249 255 253 256 260 249 257 273 271 247 223 183 198 206 213 192 194 186 181 181 174 170 177 186 185 182 187 181 185 181 183 182 186 169 172 179 148 37 13 0 351 343 348 344 344
255 265 255 248 258 247 253 255 246 251 251 219 242 259 245 190 192 204 211 207 187 184 181 179 176 169 175 182 181 180 179 182 183 178 168 178 170 163 164 154 150 94 32 4 356 335 343 350 354
263 249 257 248 237 235 239 253 245 239 245 244 222 252 243 221 205 193 201 202 193 189 178 178 178 170 172 176 176 180 181 180 177 171 175 173 168 165 159 154 144 129 37 9 11 0 354 7 16
237 246 239 248 248 231 217 247 250 254 236 236 241 215 247 231 193 203 194 190 192 198 181 183 176 170 171 171 175 180 166 181 177 174 175 174 170 165 163 159 152 115 72 37 7 23 12 20 16
245 228 235 258 260 206 249 256 243 259 246 246 236 230 224 257 195 194 199 184 191 197 179 186 177 168 171 170 177 179 171 179 177 178 175 171 173 168 162 160 148 139 114 72 56 45 30 19 2
275 284 284 273 244 253 250 252 252 237 252 251 254 233 238 209 257 173 177 168 180 200 182 192 184 172 171 171 178 179 177 176 178 178 166 169 172 172 166 162 155 150 143 101 105 56 44 32 12
252 261 266 271 265 266 252 252 260 264 253 254 253 248 236 237 219 197 179 180 176 198 188 190 196 180 175 175 180 181 182 179 178 174 170 173 172 175 171 171 167 164 148 119 70 330 92 59 27
251 252 264 258 260 237 253 259 253 253 253 250 249 250 248 250 236 197 175 187 175 175 186 189 200 192 187 179 175 173 178 173 174 170 171 176 177 178 176 175 178 175 169 149 120 64 330 86 58
252 245 247 266 267 255 238 255 251 237 238 243 240 240 246 243 256 193 197 175 187 174 174 194 205 195 193 189 180 180 186 182 188 180 179 177 180 181 182 178 181 183 174 155 148 134 75 49 67
252 264 260 244 249 266 260 264 266 261 245 238 231 237 236 234 235 240 185 180 190 187 192 188 189 190 198 198 190 183 191 195 187 181 175 176 178 183 185 182 178 189 173 176 164 151 115 70 71
253 256 252 258 261 245 244 250 254 244 238 239 212 251 253 252 240 237 229 182 182 189 196 201 209 175 185 213 189 187 193 192 193 189 177 180 181 184 191 185 181 187 181 176 174 158 131 107 98
248 239 251 245 235 246 247 245 249 262 266 24 49 19 1 343 301 294 304 238 183 180 201 197 198 183 186 196 197 185 186 204 203 193 187 184 181 186 191 187 184 186 184 182 185 175 162 139 106
240 235 235 247 252 259 241 233 244 234 122 153 203 14 5 347 343 335 304 307 301 198 197 194 191 197 192 190 193 201 188 236 209 190 193 192 188 182 186 185 185 184 182 183 188 185 172 155 130
258 257 256 255 272 276 272 267 273 145 160 173 145 30 24 347 319 309 303 295 303 300 200 206 208 199 205 207 207 204 188 210 210 184 190 191 193 183 183 184 185 184 184 186 193 193 180 169 167
264 276 275 248 253 254 259 262 260 191 188 163 151 143 81 337 312 328 314 338 291 287 284 205 214 187 200 201 203 207 206 211 200 184 185 189 192 193 175 180 188 185 188 188 191 184 183 182 182
262 239 250 264 261 256 270 257 25 30 100 150 118 91 72 7 358 349 351 356 329 308 270 264 206 220 210 193 197 210 213 206 199 183 181 188 185 180 178 178 187 187 190 192 198 196 184 187 194
286 279 282 256 255 266 272 250 55 53 117 101 90 47 20 12 24 351 2 14 359 347 333 296 256 207 216 208 201 199 213 197 182 175 166 171 150 176 195 182 193 195 197 196 196 196 197 193 196